Location: Kelshall
(52.0000°N, 0.0500°W)
Time: 11:12:51
(UTC+00:00)

ATLAS 2AS CENTAUR R/B - Visible Passes

Search period start: 20 June 2021 00:00
Search period end: 30 June 2021 00:00
Orbit: 949 x 1263 km, 63.7° (Epoch: 07 May)

Date Brightness Start Highest point End Pass type
(mag) Time Alt. Az. Time Alt. Az. Time Alt. Az.
23 Jun 5.3 02:13:37 10° ESE 02:15:56 11° E 02:18:16 10° E visible
25 Jun 4.7 02:30:19 10° SSE 02:36:12 24° ESE 02:42:01 10° ENE visible
26 Jun 5.0 01:47:42 10° SE 01:51:54 15° ESE 01:56:04 10° ENE visible
27 Jun 3.9 02:49:33 10° S 02:56:49 42° ESE 03:03:56 10° NE visible
28 Jun 4.3 02:05:46 10° SSE 02:12:18 29° ESE 02:18:44 10° ENE visible
29 Jun 4.7 01:22:36 10° SSE 01:27:55 20° ESE 01:33:10 10° ENE visible
